Regional Weather Roundup
Issued by NWS

Home | Current Version | Previous Version | Text Only | Print | Product List | Glossary On
Versions: 1 2 3 4 5 6 7 8 9 10 11 12 13 14 15 16 17 18 19 20 21 22 23 24 25 26 27 28 29 30 31 32 33 34 35 36 37 38 39 40 41 42 43 44 45 46 47 48 49 50
000
ASUS42 KFFC 252210
RWRGA
WEATHER ROUNDUP FOR GEORGIA
NATIONAL WEATHER SERVICE PEACHTREE CITY GA
500 PM EST SUN FEB 25 2018

NOTE: "FAIR" INDICATES FEW OR NO CLOUDS BELOW 12,000 FEET WITH NO
SIGNIFICANT WEATHER AND/OR OBSTRUCTIONS TO VISIBILITY.

* = USE WITH CAUTION. THE STATIONS MARKED WITH AN ASTERISK MAY NOT
REPORT WEATHER SUCH AS PRECIPITATION, FOG, OR THUNDER AND ARE NOT
QUALITY CONTROLLED BY NWS.

THE REMARK "TC" DENOTES TEMPERATURE READING IN DEGREES CELSIUS.

GAZ001>058-252300-
NORTH GEORGIA

CITY           SKY/WX    TMP DP  RH WIND       PRES   REMARKS
ATLANTA        LGT RAIN  65  59  81 S8        30.10R
ATHENS         CLOUDY    65  59  81 S3        30.10F
CHAMBLEE       CLOUDY    62  58  86 S6        30.09F
PEACHTREE CITY CLOUDY    66  58  75 S3        30.12R
ROME           CLOUDY    59  57  93 S7        30.09R
WEST ATLANTA   CLOUDY    63  60  90 SW3       30.10R
GAINESVILLE    CLOUDY    60  56  86 SE6       30.10F
CARTERSVILLE   CLOUDY    60  58  92 S8        30.10R


CITY           SKY/WX    TMP DP  RH WIND       PRES   REMARKS
DALTON*        CLOUDY    55  54  94 W3        30.11R
LAWRENCEVILLE* LGT RAIN  62  58  86 S6        30.10S
MARIETTA       LGT RAIN  62  58  87 SW3       30.10R
KENNESAW*      LGT RAIN  61  58  90 SW7       30.11R
CANTON*        LGT RAIN  61  61 100 S6        30.09R
BLAIRSVILLE*   CLOUDY    59  49  70 E3        30.04S
$$

GAZ059>098-102>109-252300-
CENTRAL GEORGIA

CITY           SKY/WX    TMP DP  RH WIND       PRES   REMARKS
AUGUSTA-BUSH   CLOUDY    72  55  55 NW3       30.10F
AUGUSTA-DANIEL CLOUDY    71  52  50 NW6       30.12S
COLUMBUS       CLOUDY    66  58  75 E8        30.09F
MACON          PTSUNNY   69  54  58 N10       30.12S
ROBINS AFB     PTSUNNY   70  55  59 N7        30.11F


CITY           SKY/WX    TMP DP  RH WIND       PRES   REMARKS
LAGRANGE*      CLOUDY    65  60  85 CALM      30.12R
SYLVANIA*      PTSUNNY   70  57  63 N8        30.11F
MILLEDGEVILLE* PTSUNNY   68  61  77 NW5       30.12F
$$

GAZ099>101-110>166-252300-
SOUTH GEORGIA

CITY           SKY/WX    TMP DP  RH WIND       PRES   REMARKS
SAVANNAH       PTSUNNY   73  58  59 N16G24    30.09R
VALDOSTA       RAIN      68  66  93 VRB3      30.13R FOG
ALMA           LGT RAIN  70  65  84 S13       30.13R
ST SIMONS      FAIR      71  66  84 S9G17     30.08S
FT STEWART     PTSUNNY   76  59  54 NW17G24   30.07R
ALBANY         CLOUDY    70  55  59 NE9       30.14F
HUNTER AFB     FAIR      75  65  70 S8        30.05S
MOODY AFB      PTSUNNY   72  65  80 SW15      30.10S
BRUNSWICK      CLOUDY    73  64  73 SE7       30.08S


CITY           SKY/WX    TMP DP  RH WIND       PRES   REMARKS
BAINBRIDGE*    CLOUDY    66  66 100 E10       30.12S
MOULTRIE*      RAIN      68  61  77 N10G20    30.14R
VIDALIA*       LGT RAIN  66  59  77 CALM      30.15R
WAYCROSS*      CLOUDY    71  67  88 NW14      30.12S
DOUGLAS*       LGT RAIN  68  64  88 N12       30.16R
$$



USA.gov is the U.S. government's official web portal to all federal, state and local government web resources and services.